Year,Month,Day,Hour,Minute,Value (Times are PST for temperature in C)
2017,01,20,00,00,5.60
2017,01,20,00,01,5.60
2017,01,20,00,02,5.60
2017,01,20,00,03,5.60
2017,01,20,00,04,5.60
2017,01,20,00,05,5.60
2017,01,20,00,06,5.60
2017,01,20,00,07,5.60
2017,01,20,00,08,5.60
2017,01,20,00,09,5.60
2017,01,20,00,10,5.60
2017,01,20,00,11,5.60
2017,01,20,00,12,5.60
2017,01,20,00,13,5.60
2017,01,20,00,14,5.60
2017,01,20,00,15,5.60
2017,01,20,00,16,5.60
2017,01,20,00,17,5.60
2017,01,20,00,18,5.60
2017,01,20,00,19,5.60
2017,01,20,00,20,5.60
2017,01,20,00,21,5.60
2017,01,20,00,22,5.60
2017,01,20,00,23,5.60
2017,01,20,00,24,5.60
2017,01,20,00,25,5.60
2017,01,20,00,26,5.60
2017,01,20,00,27,5.70
2017,01,20,00,28,5.70
2017,01,20,00,29,5.70
2017,01,20,00,30,5.70
2017,01,20,00,31,5.70
2017,01,20,00,32,5.70
2017,01,20,00,33,5.70
2017,01,20,00,34,5.70
2017,01,20,00,35,5.70
2017,01,20,00,36,5.70
2017,01,20,00,37,5.70
2017,01,20,00,38,5.70
2017,01,20,00,39,5.70
2017,01,20,00,40,5.70
2017,01,20,00,41,5.80
2017,01,20,00,42,5.80
2017,01,20,00,43,5.80
2017,01,20,00,44,5.80
2017,01,20,00,45,5.80
2017,01,20,00,46,5.80
2017,01,20,00,47,5.80
2017,01,20,00,48,5.80
2017,01,20,00,49,5.80
2017,01,20,00,50,5.80
2017,01,20,00,51,5.80
2017,01,20,00,52,5.70
2017,01,20,00,53,5.70
2017,01,20,00,54,5.70
2017,01,20,00,55,5.70
2017,01,20,00,56,5.70
2017,01,20,00,57,5.70
2017,01,20,00,58,5.70
2017,01,20,00,59,5.70
2017,01,20,01,00,5.70
2017,01,20,01,01,5.80
2017,01,20,01,02,5.80
2017,01,20,01,03,5.80
2017,01,20,01,04,5.90
2017,01,20,01,05,5.90
2017,01,20,01,06,5.90
2017,01,20,01,07,5.90
2017,01,20,01,08,5.90
2017,01,20,01,09,5.90
2017,01,20,01,10,5.90
2017,01,20,01,11,5.90
2017,01,20,01,12,5.90
2017,01,20,01,13,5.90
2017,01,20,01,14,5.90
2017,01,20,01,15,5.90
2017,01,20,01,16,5.90
2017,01,20,01,17,5.90
2017,01,20,01,18,6.00
2017,01,20,01,19,6.00
2017,01,20,01,20,6.10
2017,01,20,01,21,6.10
2017,01,20,01,22,6.10
2017,01,20,01,23,6.10
2017,01,20,01,24,6.10
2017,01,20,01,25,6.10
2017,01,20,01,26,6.20
2017,01,20,01,27,6.20
2017,01,20,01,28,6.20
2017,01,20,01,29,6.20
2017,01,20,01,30,6.20
2017,01,20,01,31,6.20
2017,01,20,01,32,6.20
2017,01,20,01,33,6.20
2017,01,20,01,34,6.20
2017,01,20,01,35,6.20
2017,01,20,01,36,6.20
2017,01,20,01,37,6.20
2017,01,20,01,38,6.20
2017,01,20,01,39,6.20
2017,01,20,01,40,6.20
2017,01,20,01,41,6.20
2017,01,20,01,42,6.20
2017,01,20,01,43,6.20
2017,01,20,01,44,6.20
2017,01,20,01,45,6.20
2017,01,20,01,46,6.20
2017,01,20,01,47,6.20
2017,01,20,01,48,6.20
2017,01,20,01,49,6.10
2017,01,20,01,50,6.10
2017,01,20,01,51,6.10
2017,01,20,01,52,6.10
2017,01,20,01,53,6.10
2017,01,20,01,54,6.10
2017,01,20,01,55,6.10
2017,01,20,01,56,6.10
2017,01,20,01,57,6.10
2017,01,20,01,58,6.10
2017,01,20,01,59,6.10
2017,01,20,02,00,6.10
2017,01,20,02,01,6.10
2017,01,20,02,02,6.10
2017,01,20,02,03,6.10
2017,01,20,02,04,6.10
2017,01,20,02,05,6.10
2017,01,20,02,06,6.10
2017,01,20,02,07,6.10
2017,01,20,02,08,6.10
2017,01,20,02,09,6.10
2017,01,20,02,10,6.10
2017,01,20,02,11,6.10
2017,01,20,02,12,6.10
2017,01,20,02,13,6.10
2017,01,20,02,14,6.10
2017,01,20,02,15,6.10
2017,01,20,02,16,6.10
2017,01,20,02,17,6.10
2017,01,20,02,18,6.10
2017,01,20,02,19,6.10
2017,01,20,02,20,6.10
2017,01,20,02,21,6.10
2017,01,20,02,22,6.10
2017,01,20,02,23,6.10
2017,01,20,02,24,6.20
2017,01,20,02,25,6.10
2017,01,20,02,26,6.10
2017,01,20,02,27,6.10
2017,01,20,02,28,6.10
2017,01,20,02,29,6.10
2017,01,20,02,30,6.10
2017,01,20,02,31,6.10
2017,01,20,02,32,6.10
2017,01,20,02,33,6.10
2017,01,20,02,34,6.10
2017,01,20,02,35,6.10
2017,01,20,02,36,6.00
2017,01,20,02,37,6.00
2017,01,20,02,38,6.00
2017,01,20,02,39,6.00
2017,01,20,02,40,6.00
2017,01,20,02,41,6.00
2017,01,20,02,42,6.00
2017,01,20,02,43,5.90
2017,01,20,02,44,5.90
2017,01,20,02,45,5.90
2017,01,20,02,46,5.90
2017,01,20,02,47,5.90
2017,01,20,02,48,5.90
2017,01,20,02,49,5.90
2017,01,20,02,50,5.90
2017,01,20,02,51,5.80
2017,01,20,02,52,5.80
2017,01,20,02,53,5.80
2017,01,20,02,54,5.80
2017,01,20,02,55,5.80
2017,01,20,02,56,5.80
2017,01,20,02,57,5.80
2017,01,20,02,58,5.80
2017,01,20,02,59,5.80
2017,01,20,03,00,5.80
2017,01,20,03,01,5.80
2017,01,20,03,02,5.70
2017,01,20,03,03,5.70
2017,01,20,03,04,5.70
2017,01,20,03,05,5.70
2017,01,20,03,06,5.70
2017,01,20,03,07,5.70
2017,01,20,03,08,5.70
2017,01,20,03,09,5.60
2017,01,20,03,10,5.60
2017,01,20,03,11,5.60
2017,01,20,03,12,5.60
2017,01,20,03,13,5.60
2017,01,20,03,14,5.60
2017,01,20,03,15,5.60
2017,01,20,03,16,5.60
2017,01,20,03,17,5.60
2017,01,20,03,18,5.60
2017,01,20,03,19,5.60
2017,01,20,03,20,5.60
2017,01,20,03,21,5.50
2017,01,20,03,22,5.50
2017,01,20,03,23,5.50
2017,01,20,03,24,5.50
2017,01,20,03,25,5.40
2017,01,20,03,26,5.40
2017,01,20,03,27,5.40
2017,01,20,03,28,5.40
2017,01,20,03,29,5.40
2017,01,20,03,30,5.30
2017,01,20,03,31,5.30
2017,01,20,03,32,5.30
2017,01,20,03,33,5.30
2017,01,20,03,34,5.30
2017,01,20,03,35,5.30
2017,01,20,03,36,5.30
2017,01,20,03,37,5.20
2017,01,20,03,38,5.20
2017,01,20,03,39,5.20
2017,01,20,03,40,5.20
2017,01,20,03,41,5.20
2017,01,20,03,42,5.20
2017,01,20,03,43,5.10
2017,01,20,03,44,5.10
2017,01,20,03,45,5.10
2017,01,20,03,46,5.10
2017,01,20,03,47,5.10
2017,01,20,03,48,5.10
2017,01,20,03,49,5.00
2017,01,20,03,50,5.00
2017,01,20,03,51,5.00
2017,01,20,03,52,4.90
2017,01,20,03,53,4.90
2017,01,20,03,54,4.90
2017,01,20,03,55,4.90
2017,01,20,03,56,4.90
2017,01,20,03,57,4.90
2017,01,20,03,58,4.80
2017,01,20,03,59,4.80
2017,01,20,04,00,4.80
2017,01,20,04,01,4.80
2017,01,20,04,02,4.80
2017,01,20,04,03,4.80
2017,01,20,04,04,4.70
2017,01,20,04,05,4.70
2017,01,20,04,06,4.70
2017,01,20,04,07,4.70
2017,01,20,04,08,4.70
2017,01,20,04,09,4.70
2017,01,20,04,10,4.60
2017,01,20,04,11,4.60
2017,01,20,04,12,4.60
2017,01,20,04,13,4.60
2017,01,20,04,14,4.60
2017,01,20,04,15,4.60
2017,01,20,04,16,4.60
2017,01,20,04,17,4.60
2017,01,20,04,18,4.60
2017,01,20,04,19,4.60
2017,01,20,04,20,4.60
2017,01,20,04,21,4.60
2017,01,20,04,22,4.60
2017,01,20,04,23,4.60
2017,01,20,04,24,4.60
2017,01,20,04,25,4.60
2017,01,20,04,26,4.70
2017,01,20,04,27,4.70
2017,01,20,04,28,4.70
2017,01,20,04,29,4.70
2017,01,20,04,30,4.70
2017,01,20,04,31,4.70
2017,01,20,04,32,4.70
2017,01,20,04,33,4.70
2017,01,20,04,34,4.70
2017,01,20,04,35,4.70
2017,01,20,04,36,4.70
2017,01,20,04,37,4.70
2017,01,20,04,38,4.80
2017,01,20,04,39,4.70
2017,01,20,04,40,4.70
2017,01,20,04,41,4.70
2017,01,20,04,42,4.70
2017,01,20,04,43,4.70
2017,01,20,04,44,4.70
2017,01,20,04,45,4.70
2017,01,20,04,46,4.70
2017,01,20,04,47,4.70
2017,01,20,04,48,4.70
2017,01,20,04,49,4.70
2017,01,20,04,50,4.70
2017,01,20,04,51,4.70
2017,01,20,04,52,4.70
2017,01,20,04,53,4.70
2017,01,20,04,54,4.70
2017,01,20,04,55,4.70
2017,01,20,04,56,4.70
2017,01,20,04,57,4.70
2017,01,20,04,58,4.60
2017,01,20,04,59,4.60
2017,01,20,05,00,4.60
2017,01,20,05,01,4.60
2017,01,20,05,02,4.60
2017,01,20,05,03,4.60
2017,01,20,05,04,4.60
2017,01,20,05,05,4.60
2017,01,20,05,06,4.60
2017,01,20,05,07,4.60
2017,01,20,05,08,4.60
2017,01,20,05,09,4.60
2017,01,20,05,10,4.50
2017,01,20,05,11,4.50
2017,01,20,05,12,4.50
2017,01,20,05,13,4.40
2017,01,20,05,14,4.40
2017,01,20,05,15,4.40
2017,01,20,05,16,4.40
2017,01,20,05,17,4.40
2017,01,20,05,18,4.40
2017,01,20,05,19,4.40
2017,01,20,05,20,4.30
2017,01,20,05,21,4.30
2017,01,20,05,22,4.30
2017,01,20,05,23,4.30
2017,01,20,05,24,4.30
2017,01,20,05,25,4.30
2017,01,20,05,26,4.30
2017,01,20,05,27,4.30
2017,01,20,05,28,4.30
2017,01,20,05,29,4.30
2017,01,20,05,30,4.30
2017,01,20,05,31,4.40
2017,01,20,05,32,4.40
2017,01,20,05,33,4.40
2017,01,20,05,34,4.40
2017,01,20,05,35,4.50
2017,01,20,05,36,4.50
2017,01,20,05,37,4.50
2017,01,20,05,38,4.50
2017,01,20,05,39,4.50
2017,01,20,05,40,4.50
2017,01,20,05,41,4.50
2017,01,20,05,42,4.50
2017,01,20,05,43,4.50
2017,01,20,05,44,4.50
2017,01,20,05,45,4.50
2017,01,20,05,46,4.50
2017,01,20,05,47,4.50
2017,01,20,05,48,4.50
2017,01,20,05,49,4.60
2017,01,20,05,50,4.60
2017,01,20,05,51,4.60
2017,01,20,05,52,4.60
2017,01,20,05,53,4.60
2017,01,20,05,54,4.60
2017,01,20,05,55,4.60
2017,01,20,05,56,4.60
2017,01,20,05,57,4.60
2017,01,20,05,58,4.60
2017,01,20,05,59,4.60
2017,01,20,06,00,4.60
2017,01,20,06,01,4.60
2017,01,20,06,02,4.60
2017,01,20,06,03,4.60
2017,01,20,06,04,4.60
2017,01,20,06,05,4.60
2017,01,20,06,06,4.60
2017,01,20,06,07,4.60
2017,01,20,06,08,4.60
2017,01,20,06,09,4.60
2017,01,20,06,10,4.60
2017,01,20,06,11,4.60
2017,01,20,06,12,4.60
2017,01,20,06,13,4.60
2017,01,20,06,14,4.60
2017,01,20,06,15,4.60
2017,01,20,06,16,4.60
2017,01,20,06,17,4.60
2017,01,20,06,18,4.60
2017,01,20,06,19,4.60
2017,01,20,06,20,4.60
2017,01,20,06,21,4.50
2017,01,20,06,22,4.50
2017,01,20,06,23,4.50
2017,01,20,06,24,4.50
2017,01,20,06,25,4.60
2017,01,20,06,26,4.50
2017,01,20,06,27,4.50
2017,01,20,06,28,4.50
2017,01,20,06,29,4.50
2017,01,20,06,30,4.50
2017,01,20,06,31,4.50
2017,01,20,06,32,4.50
2017,01,20,06,33,4.40
2017,01,20,06,34,4.40
2017,01,20,06,35,4.40
2017,01,20,06,36,4.40
2017,01,20,06,37,4.40
2017,01,20,06,38,4.40
2017,01,20,06,39,4.40
2017,01,20,06,40,4.50
2017,01,20,06,41,4.50
2017,01,20,06,42,4.50
2017,01,20,06,43,4.40
2017,01,20,06,44,4.40
2017,01,20,06,45,4.40
2017,01,20,06,46,4.40
2017,01,20,06,47,4.40
2017,01,20,06,48,4.40
2017,01,20,06,49,4.40
2017,01,20,06,50,4.40
2017,01,20,06,51,4.40
2017,01,20,06,52,4.40
2017,01,20,06,53,4.40
2017,01,20,06,54,4.40
2017,01,20,06,55,4.50
2017,01,20,06,56,4.50
2017,01,20,06,57,4.50
2017,01,20,06,58,4.50
2017,01,20,06,59,4.60
2017,01,20,07,00,4.50
2017,01,20,07,01,4.50
2017,01,20,07,02,4.50
2017,01,20,07,03,4.50
2017,01,20,07,04,4.50
2017,01,20,07,05,4.40
2017,01,20,07,06,4.40
2017,01,20,07,07,4.40
2017,01,20,07,08,4.40
2017,01,20,07,09,4.40
2017,01,20,07,10,4.40
2017,01,20,07,11,4.30
2017,01,20,07,12,4.30
2017,01,20,07,13,4.30
2017,01,20,07,14,4.40
2017,01,20,07,15,4.40
2017,01,20,07,16,4.50
2017,01,20,07,17,4.60
2017,01,20,07,18,4.60
2017,01,20,07,19,4.60
2017,01,20,07,20,4.60
2017,01,20,07,21,4.60
2017,01,20,07,22,4.60
2017,01,20,07,23,4.60
2017,01,20,07,24,4.60
2017,01,20,07,25,4.60
2017,01,20,07,26,4.60
2017,01,20,07,27,4.60
2017,01,20,07,28,4.60
2017,01,20,07,29,4.60
2017,01,20,07,30,4.60
2017,01,20,07,31,4.60
2017,01,20,07,32,4.60
2017,01,20,07,33,4.60
2017,01,20,07,34,4.60
2017,01,20,07,35,4.70
2017,01,20,07,36,4.70
2017,01,20,07,37,4.70
2017,01,20,07,38,4.70
2017,01,20,07,39,4.80
2017,01,20,07,40,4.80
2017,01,20,07,41,4.80
2017,01,20,07,42,4.80
2017,01,20,07,43,4.80
2017,01,20,07,44,4.90
2017,01,20,07,45,4.90
2017,01,20,07,46,4.90
2017,01,20,07,47,4.90
2017,01,20,07,48,4.90
2017,01,20,07,49,4.90
2017,01,20,07,50,4.90
2017,01,20,07,51,4.90
2017,01,20,07,52,4.90
2017,01,20,07,53,5.00
2017,01,20,07,54,5.00
2017,01,20,07,55,5.00
2017,01,20,07,56,5.00
2017,01,20,07,57,5.10
2017,01,20,07,58,5.10
2017,01,20,07,59,5.10
2017,01,20,08,00,5.10
2017,01,20,08,01,5.10
2017,01,20,08,02,5.10
2017,01,20,08,03,5.10
2017,01,20,08,04,5.10
2017,01,20,08,05,5.10
2017,01,20,08,06,5.10
2017,01,20,08,07,5.10
2017,01,20,08,08,5.10
2017,01,20,08,09,5.10
2017,01,20,08,10,5.10
2017,01,20,08,11,5.10
2017,01,20,08,12,5.10
2017,01,20,08,13,5.10
2017,01,20,08,14,5.20
2017,01,20,08,15,5.20
2017,01,20,08,16,5.20
2017,01,20,08,17,5.20
2017,01,20,08,18,5.20
2017,01,20,08,19,5.20
2017,01,20,08,20,5.20
2017,01,20,08,21,5.20
2017,01,20,08,22,5.20
2017,01,20,08,23,5.20
2017,01,20,08,24,5.20
2017,01,20,08,25,5.30
2017,01,20,08,26,5.30
2017,01,20,08,27,5.30
2017,01,20,08,28,5.30
2017,01,20,08,29,5.30
2017,01,20,08,30,5.30
2017,01,20,08,31,5.30
2017,01,20,08,32,5.30
2017,01,20,08,33,5.30
2017,01,20,08,34,5.30
2017,01,20,08,35,5.40
2017,01,20,08,36,5.40
2017,01,20,08,37,5.40
2017,01,20,08,38,5.40
2017,01,20,08,39,5.40
2017,01,20,08,40,5.50
2017,01,20,08,41,5.50
2017,01,20,08,42,5.60
2017,01,20,08,43,5.60
2017,01,20,08,44,5.60
2017,01,20,08,45,5.60
2017,01,20,08,46,5.60
2017,01,20,08,47,5.70
2017,01,20,08,48,5.70
2017,01,20,08,49,5.80
2017,01,20,08,50,5.80
2017,01,20,08,51,5.80
2017,01,20,08,52,5.80
2017,01,20,08,53,5.80
2017,01,20,08,54,5.90
2017,01,20,08,55,5.90
2017,01,20,08,56,5.90
2017,01,20,08,57,6.00
2017,01,20,08,58,6.10
2017,01,20,08,59,6.10
2017,01,20,09,00,6.20
2017,01,20,09,01,6.30
2017,01,20,09,02,6.40
2017,01,20,09,03,6.40
2017,01,20,09,04,6.50
2017,01,20,09,05,6.60
2017,01,20,09,06,6.60
2017,01,20,09,07,6.60
2017,01,20,09,08,6.60
2017,01,20,09,09,6.60
2017,01,20,09,10,6.50
2017,01,20,09,11,6.60
2017,01,20,09,12,6.60
2017,01,20,09,13,6.70
2017,01,20,09,14,6.70
2017,01,20,09,15,6.80
2017,01,20,09,16,6.80
2017,01,20,09,17,6.90
2017,01,20,09,18,6.90
2017,01,20,09,19,6.90
2017,01,20,09,20,6.90
2017,01,20,09,21,6.90
2017,01,20,09,22,7.00
2017,01,20,09,23,7.00
2017,01,20,09,24,7.10
2017,01,20,09,25,7.20
2017,01,20,09,26,7.20
2017,01,20,09,27,7.20
2017,01,20,09,28,7.30
2017,01,20,09,29,7.30
2017,01,20,09,30,7.30
2017,01,20,09,31,7.30
2017,01,20,09,32,7.40
2017,01,20,09,33,7.40
2017,01,20,09,34,7.50
2017,01,20,09,35,7.50
2017,01,20,09,36,7.50
2017,01,20,09,37,7.50
2017,01,20,09,38,7.50
2017,01,20,09,39,7.60
2017,01,20,09,40,7.60
2017,01,20,09,41,7.60
2017,01,20,09,42,7.60
2017,01,20,09,43,7.70
2017,01,20,09,44,7.70
2017,01,20,09,45,7.80
2017,01,20,09,46,7.90
2017,01,20,09,47,8.00
2017,01,20,09,48,8.10
2017,01,20,09,49,8.10
2017,01,20,09,50,8.20
2017,01,20,09,51,8.10
2017,01,20,09,52,8.10
2017,01,20,09,53,8.00
2017,01,20,09,54,8.00
2017,01,20,09,55,7.90
2017,01,20,09,56,7.80
2017,01,20,09,57,7.80
2017,01,20,09,58,7.70
2017,01,20,09,59,7.70
2017,01,20,10,00,7.70
2017,01,20,10,01,7.70
2017,01,20,10,02,7.70
2017,01,20,10,03,7.70
2017,01,20,10,04,7.70
2017,01,20,10,05,7.60
2017,01,20,10,06,7.60
2017,01,20,10,07,7.60
2017,01,20,10,08,7.50
2017,01,20,10,09,7.50
2017,01,20,10,10,7.50
2017,01,20,10,11,7.50
2017,01,20,10,12,7.50
2017,01,20,10,13,7.50
2017,01,20,10,14,7.60
2017,01,20,10,15,7.60
2017,01,20,10,16,7.60
2017,01,20,10,17,7.70
2017,01,20,10,18,7.70
2017,01,20,10,19,7.70
2017,01,20,10,20,7.70
2017,01,20,10,21,7.70
2017,01,20,10,22,7.70
2017,01,20,10,23,7.70
2017,01,20,10,24,7.70
2017,01,20,10,25,7.70
2017,01,20,10,26,7.60
2017,01,20,10,27,7.60
2017,01,20,10,28,7.60
2017,01,20,10,29,7.60
2017,01,20,10,30,7.50
2017,01,20,10,31,7.50
2017,01,20,10,32,7.40
2017,01,20,10,33,7.30
2017,01,20,10,34,7.30
2017,01,20,10,35,7.20
2017,01,20,10,36,7.30
2017,01,20,10,37,7.30
2017,01,20,10,38,7.30
2017,01,20,10,39,7.40
2017,01,20,10,40,7.40
2017,01,20,10,41,7.40
2017,01,20,10,42,7.40
2017,01,20,10,43,7.40
2017,01,20,10,44,7.40
2017,01,20,10,45,7.30
2017,01,20,10,46,7.30
2017,01,20,10,47,7.30
2017,01,20,10,48,7.30
2017,01,20,10,49,7.30
2017,01,20,10,50,7.30
2017,01,20,10,51,7.30
2017,01,20,10,52,7.30
2017,01,20,10,53,7.20
2017,01,20,10,54,7.20
2017,01,20,10,55,7.20
2017,01,20,10,56,7.20
2017,01,20,10,57,7.20
2017,01,20,10,58,7.20
2017,01,20,10,59,7.20
2017,01,20,11,00,7.20
2017,01,20,11,01,7.20
2017,01,20,11,02,7.20
2017,01,20,11,03,7.20
2017,01,20,11,04,7.20
2017,01,20,11,05,7.20
2017,01,20,11,06,7.20
2017,01,20,11,07,7.20
2017,01,20,11,08,7.20
2017,01,20,11,09,7.20
2017,01,20,11,10,7.20
2017,01,20,11,11,7.20
2017,01,20,11,12,7.20
2017,01,20,11,13,7.20
2017,01,20,11,14,7.20
2017,01,20,11,15,7.20
2017,01,20,11,16,7.20
2017,01,20,11,17,7.20
2017,01,20,11,18,7.10
2017,01,20,11,19,7.10
2017,01,20,11,20,7.00
2017,01,20,11,21,7.00
2017,01,20,11,22,7.00
2017,01,20,11,23,6.90
2017,01,20,11,24,6.90
2017,01,20,11,25,7.00
2017,01,20,11,26,7.00
2017,01,20,11,27,7.00
2017,01,20,11,28,7.10
2017,01,20,11,29,7.10
2017,01,20,11,30,7.20
2017,01,20,11,31,7.20
2017,01,20,11,32,7.20
2017,01,20,11,33,7.20
2017,01,20,11,34,7.20
2017,01,20,11,35,7.20
2017,01,20,11,36,7.20
2017,01,20,11,37,7.20
2017,01,20,11,38,7.20
2017,01,20,11,39,7.20
2017,01,20,11,40,7.20
2017,01,20,11,41,7.30
2017,01,20,11,42,7.30
2017,01,20,11,43,7.40
2017,01,20,11,44,7.50
2017,01,20,11,45,7.60
2017,01,20,11,46,7.60
2017,01,20,11,47,7.60
2017,01,20,11,48,7.70
2017,01,20,11,49,7.80
2017,01,20,11,50,7.90
2017,01,20,11,51,8.00
2017,01,20,11,52,8.10
2017,01,20,11,53,8.20
2017,01,20,11,54,8.20
2017,01,20,11,55,8.20
2017,01,20,11,56,8.30
2017,01,20,11,57,8.30
2017,01,20,11,58,8.30
2017,01,20,11,59,8.30
2017,01,20,12,00,8.30
2017,01,20,12,01,8.30
2017,01,20,12,02,8.30
2017,01,20,12,03,8.20
2017,01,20,12,04,8.20
2017,01,20,12,05,8.10
2017,01,20,12,06,8.00
2017,01,20,12,07,8.00
2017,01,20,12,08,7.90
2017,01,20,12,09,7.90
2017,01,20,12,10,7.80
2017,01,20,12,11,7.80
2017,01,20,12,12,7.80
2017,01,20,12,13,7.90
2017,01,20,12,14,8.00
2017,01,20,12,15,8.10
2017,01,20,12,16,8.10
2017,01,20,12,17,8.10
2017,01,20,12,18,8.10
2017,01,20,12,19,8.10
2017,01,20,12,20,8.10
2017,01,20,12,21,8.20
2017,01,20,12,22,8.20
2017,01,20,12,23,8.10
2017,01,20,12,24,8.10
2017,01,20,12,25,8.10
2017,01,20,12,26,8.10
2017,01,20,12,27,8.10
2017,01,20,12,28,8.10
2017,01,20,12,29,8.10
2017,01,20,12,30,8.10
2017,01,20,12,31,8.10
2017,01,20,12,32,8.20
2017,01,20,12,33,8.30
2017,01,20,12,34,8.30
2017,01,20,12,35,8.40
2017,01,20,12,36,8.50
2017,01,20,12,37,8.60
2017,01,20,12,38,8.70
2017,01,20,12,39,8.80
2017,01,20,12,40,8.80
2017,01,20,12,41,8.80
2017,01,20,12,42,8.70
2017,01,20,12,43,8.60
2017,01,20,12,44,8.50
2017,01,20,12,45,8.50
2017,01,20,12,46,8.50
2017,01,20,12,47,8.40
2017,01,20,12,48,8.40
2017,01,20,12,49,8.40
2017,01,20,12,50,8.40
2017,01,20,12,51,8.50
2017,01,20,12,52,8.60
2017,01,20,12,53,8.60
2017,01,20,12,54,8.60
2017,01,20,12,55,8.60
2017,01,20,12,56,8.60
2017,01,20,12,57,8.60
2017,01,20,12,58,8.50
2017,01,20,12,59,8.50
2017,01,20,13,00,8.50
2017,01,20,13,01,8.60
2017,01,20,13,02,8.60
2017,01,20,13,03,8.50
2017,01,20,13,04,8.50
2017,01,20,13,05,8.40
2017,01,20,13,06,8.40
2017,01,20,13,07,8.40
2017,01,20,13,08,8.30
2017,01,20,13,09,8.30
2017,01,20,13,10,8.40
2017,01,20,13,11,8.30
2017,01,20,13,12,8.30
2017,01,20,13,13,8.30
2017,01,20,13,14,8.30
2017,01,20,13,15,8.40
2017,01,20,13,16,8.40
2017,01,20,13,17,8.50
2017,01,20,13,18,8.50
2017,01,20,13,19,8.50
2017,01,20,13,20,8.40
2017,01,20,13,21,8.30
2017,01,20,13,22,8.20
2017,01,20,13,23,8.20
2017,01,20,13,24,8.30
2017,01,20,13,25,8.40
2017,01,20,13,26,8.50
2017,01,20,13,27,8.60
2017,01,20,13,28,8.60
2017,01,20,13,29,8.60
2017,01,20,13,30,8.60
2017,01,20,13,31,8.60
2017,01,20,13,32,8.60
2017,01,20,13,33,8.50
2017,01,20,13,34,8.40
2017,01,20,13,35,8.30
2017,01,20,13,36,8.30
2017,01,20,13,37,8.40
2017,01,20,13,38,8.40
2017,01,20,13,39,8.40
2017,01,20,13,40,8.30
2017,01,20,13,41,8.30
2017,01,20,13,42,8.20
2017,01,20,13,43,8.20
2017,01,20,13,44,8.20
2017,01,20,13,45,8.20
2017,01,20,13,46,8.30
2017,01,20,13,47,8.40
2017,01,20,13,48,8.50
2017,01,20,13,49,8.50
2017,01,20,13,50,8.50
2017,01,20,13,51,8.50
2017,01,20,13,52,8.60
2017,01,20,13,53,8.60
2017,01,20,13,54,8.50
2017,01,20,13,55,8.50
2017,01,20,13,56,8.40
2017,01,20,13,57,8.30
2017,01,20,13,58,8.20
2017,01,20,13,59,8.10
2017,01,20,14,00,8.00
2017,01,20,14,01,7.90
2017,01,20,14,02,7.90
2017,01,20,14,03,7.90
2017,01,20,14,04,7.80
2017,01,20,14,05,7.80
2017,01,20,14,06,7.70
2017,01,20,14,07,7.70
2017,01,20,14,08,7.70
2017,01,20,14,09,7.60
2017,01,20,14,10,7.60
2017,01,20,14,11,7.50
2017,01,20,14,12,7.50
2017,01,20,14,13,7.50
2017,01,20,14,14,7.50
2017,01,20,14,15,7.60
2017,01,20,14,16,7.60
2017,01,20,14,17,7.60
2017,01,20,14,18,7.60
2017,01,20,14,19,7.60
2017,01,20,14,20,7.60
2017,01,20,14,21,7.60
2017,01,20,14,22,7.60
2017,01,20,14,23,7.60
2017,01,20,14,24,7.60
2017,01,20,14,25,7.60
2017,01,20,14,26,7.60
2017,01,20,14,27,7.60
2017,01,20,14,28,7.60
2017,01,20,14,29,7.60
2017,01,20,14,30,7.60
2017,01,20,14,31,7.60
2017,01,20,14,32,7.60
2017,01,20,14,33,7.60
2017,01,20,14,34,7.60
2017,01,20,14,35,7.60
2017,01,20,14,36,7.50
2017,01,20,14,37,7.50
2017,01,20,14,38,7.50
2017,01,20,14,39,7.50
2017,01,20,14,40,7.50
2017,01,20,14,41,7.50
2017,01,20,14,42,7.50
2017,01,20,14,43,7.50
2017,01,20,14,44,7.50
2017,01,20,14,45,7.50
2017,01,20,14,46,7.50
2017,01,20,14,47,7.50
2017,01,20,14,48,7.40
2017,01,20,14,49,7.40
2017,01,20,14,50,7.40
2017,01,20,14,51,7.40
2017,01,20,14,52,7.40
2017,01,20,14,53,7.40
2017,01,20,14,54,7.40
2017,01,20,14,55,7.40
2017,01,20,14,56,7.40
2017,01,20,14,57,7.30
2017,01,20,14,58,7.30
2017,01,20,14,59,7.30
2017,01,20,15,00,7.30
2017,01,20,15,01,7.30
2017,01,20,15,02,7.30
2017,01,20,15,03,7.30
2017,01,20,15,04,7.20
2017,01,20,15,05,7.20
2017,01,20,15,06,7.20
2017,01,20,15,07,7.20
2017,01,20,15,08,7.20
2017,01,20,15,09,7.20
2017,01,20,15,10,7.20
2017,01,20,15,11,7.20
2017,01,20,15,12,7.20
2017,01,20,15,13,7.10
2017,01,20,15,14,7.10
2017,01,20,15,15,7.10
2017,01,20,15,16,7.10
2017,01,20,15,17,7.10
2017,01,20,15,18,7.10
2017,01,20,15,19,7.10
2017,01,20,15,20,7.10
2017,01,20,15,21,7.10
2017,01,20,15,22,7.10
2017,01,20,15,23,7.10
2017,01,20,15,24,7.00
2017,01,20,15,25,7.00
2017,01,20,15,26,7.00
2017,01,20,15,27,7.00
2017,01,20,15,28,6.90
2017,01,20,15,29,6.90
2017,01,20,15,30,6.90
2017,01,20,15,31,6.90
2017,01,20,15,32,6.90
2017,01,20,15,33,6.90
2017,01,20,15,34,6.90
2017,01,20,15,35,6.90
2017,01,20,15,36,6.90
2017,01,20,15,37,6.90
2017,01,20,15,38,6.90
2017,01,20,15,39,6.90
2017,01,20,15,40,6.90
2017,01,20,15,41,6.90
2017,01,20,15,42,6.90
2017,01,20,15,43,6.90
2017,01,20,18,28,5.40
2017,01,20,18,29,5.40
2017,01,20,18,30,5.40
2017,01,20,18,31,5.40
2017,01,20,18,32,5.40
2017,01,20,18,33,5.40
2017,01,20,18,34,5.40
2017,01,20,18,35,5.40
2017,01,20,18,36,5.40
2017,01,20,18,37,5.40
2017,01,20,18,38,5.40
2017,01,20,18,39,5.40
2017,01,20,18,40,5.40
2017,01,20,18,41,5.40
2017,01,20,18,42,5.40
2017,01,20,18,43,5.40
2017,01,20,18,44,5.40
2017,01,20,18,45,5.40
2017,01,20,18,46,5.40
2017,01,20,18,47,5.40
2017,01,20,18,48,5.50
2017,01,20,18,49,5.50
2017,01,20,18,50,5.50
2017,01,20,18,51,5.60
2017,01,20,18,52,5.60
2017,01,20,18,53,5.60
2017,01,20,18,54,5.60
2017,01,20,18,55,5.60
2017,01,20,18,56,5.60
2017,01,20,18,57,5.60
2017,01,20,18,58,5.60
2017,01,20,18,59,5.60
2017,01,20,19,00,5.70
2017,01,20,19,01,5.70
2017,01,20,19,02,5.70
2017,01,20,19,03,5.70
2017,01,20,19,04,5.70
2017,01,20,19,05,5.70
2017,01,20,19,06,5.70
2017,01,20,19,07,5.70
2017,01,20,19,08,5.70
2017,01,20,19,09,5.70
2017,01,20,19,10,5.70
2017,01,20,19,11,5.70
2017,01,20,19,12,5.70
2017,01,20,19,13,5.70
2017,01,20,19,14,5.70
2017,01,20,19,15,5.70
2017,01,20,19,16,5.70
2017,01,20,19,17,5.70
2017,01,20,19,18,5.70
2017,01,20,19,19,5.70
2017,01,20,19,20,5.70
2017,01,20,19,21,5.70
2017,01,20,19,22,5.70
2017,01,20,19,23,5.70
2017,01,20,19,24,5.80
2017,01,20,19,25,5.80
2017,01,20,19,26,5.80
2017,01,20,19,27,5.80
2017,01,20,19,28,5.80
2017,01,20,19,29,5.80
2017,01,20,19,30,5.80
2017,01,20,19,31,5.80
2017,01,20,19,32,5.80
2017,01,20,19,33,5.80
2017,01,20,19,34,5.80
2017,01,20,19,35,5.80
2017,01,20,19,36,5.80
2017,01,20,19,37,5.80
2017,01,20,19,38,5.80
2017,01,20,19,39,5.80
2017,01,20,19,40,5.80
2017,01,20,19,41,5.80
2017,01,20,19,42,5.80
2017,01,20,19,43,5.70
2017,01,20,19,44,5.70
2017,01,20,19,45,5.80
2017,01,20,19,46,5.80
2017,01,20,19,47,5.80
2017,01,20,19,48,5.80
2017,01,20,19,49,5.80
2017,01,20,19,50,5.80
2017,01,20,19,51,5.80
2017,01,20,19,52,5.80
2017,01,20,19,53,5.80
2017,01,20,19,54,5.80
2017,01,20,19,55,5.90
2017,01,20,19,56,5.90
2017,01,20,19,57,5.90
2017,01,20,19,58,5.90
2017,01,20,19,59,5.90
2017,01,20,20,00,5.90
2017,01,20,20,01,5.90
2017,01,20,20,02,5.90
2017,01,20,20,03,5.90
2017,01,20,20,04,5.80
2017,01,20,20,05,5.80
2017,01,20,20,06,5.80
2017,01,20,20,07,5.80
2017,01,20,20,08,5.80
2017,01,20,20,09,5.80
2017,01,20,20,10,5.80
2017,01,20,20,11,5.90
2017,01,20,20,12,5.90
2017,01,20,20,13,5.90
2017,01,20,20,14,5.90
2017,01,20,20,15,5.90
2017,01,20,20,16,5.90
2017,01,20,20,17,5.90
2017,01,20,20,18,5.90
2017,01,20,20,19,5.80
2017,01,20,20,20,5.80
2017,01,20,20,21,5.80
2017,01,20,20,22,5.80
2017,01,20,20,23,5.80
2017,01,20,20,24,5.80
2017,01,20,20,25,5.80
2017,01,20,20,26,5.80
2017,01,20,20,27,5.80
2017,01,20,20,28,5.80
2017,01,20,20,29,5.80
2017,01,20,20,30,5.80
2017,01,20,20,31,5.80
2017,01,20,20,32,5.80
2017,01,20,20,33,5.80
2017,01,20,20,34,5.80
2017,01,20,20,35,5.80
2017,01,20,20,36,5.80
2017,01,20,20,37,5.80
2017,01,20,20,38,5.80
2017,01,20,20,39,5.80
2017,01,20,20,40,5.80
2017,01,20,20,41,5.80
2017,01,20,20,42,5.80
2017,01,20,20,43,5.80
2017,01,20,20,44,5.80
2017,01,20,20,45,5.80
2017,01,20,20,46,5.80
2017,01,20,20,47,5.80
2017,01,20,20,48,5.80
2017,01,20,20,49,5.80
2017,01,20,20,50,5.80